x

Aultbea (03034) Weather Station

1:00pm - Mon 22nd Dec 2014 All times are GMT.

  • Wind
    24mph, 36mph gusts
  • 空気 Temp 44°f
  • Sea Pressure 998mb
  • Aultbea
  • Aultbea

More Historic Weather Station data

Upgrade to MSW Pro to gain access to the past 30 days of data for over 8000 Wavebouys and Weather Stations around the globe.

Join Pro

Comparision Forecast

View Surf forecast
   
Mon 12/22 1:00pm 24 36 mph 998mb 44f
12:00pm 25 39 mph 998mb 44f
11:00am 22 39 mph 998mb 45f
10:00am 19 33 mph 998mb 45f
9:00am 22 36 mph 998mb 45f
8:00am 21 36 mph 997mb 45f
7:00am 18 43 mph 997mb 44f
6:00am 22 41 mph 997mb 45f
5:00am 25 41 mph 997mb 45f
4:00am 24 43 mph 996mb 46f
3:00am 25 38 mph 997mb 46f
2:00am 19 41 mph 997mb 46f
1:00am 22 45 mph 998mb 45f
12:00am 22 37 mph 998mb 45f
Sun 12/21 11:00pm 24 36 mph 998mb 47f
10:00pm 23 41 mph 998mb 48f
9:00pm 25 38 mph 999mb 48f
8:00pm 23 37 mph 999mb 48f
7:00pm 22 36 mph 999mb 49f
6:00pm 22 36 mph 999mb 49f
5:00pm 23 39 mph 999mb 49f
4:00pm 26 40 mph 1000mb 49f
3:00pm 22 36 mph 1000mb 50f
2:00pm 21 34 mph 1001mb 50f
1:00pm 22 38 mph 1002mb 50f
12:00pm 16 29 mph 1002mb 50f
11:00am 21 34 mph 1004mb 50f
10:00am 18 37 mph 1004mb 51f
9:00am 19 33 mph 1004mb 51f
8:00am 24 38 mph 1005mb 50f
7:00am 30 43 mph 1005mb 50f
6:00am 28 38 mph 1006mb 49f
5:00am 25 38 mph 1008mb 49f
4:00am 26 37 mph 1009mb 48f
3:00am 25 40 mph 1011mb 47f
2:00am 25 38 mph 1011mb 47f
1:00am 26 39 mph 1013mb 47f
12:00am 22 31 mph 1014mb 46f
Sat 12/20 11:00pm 21
mph
1015mb 46f
10:00pm 16
mph
1016mb 46f
9:00pm 19
mph
1017mb 46f
8:00pm 14
mph
1017mb 44f
7:00pm 15
mph
1018mb 45f
6:00pm 8
mph
1019mb 45f
5:00pm 8
mph
1019mb 46f
4:00pm 9
mph
1019mb 46f
3:00pm 13
mph
1019mb 46f
2:00pm 13
mph
1018mb 45f
1:00pm 15
mph
1019mb 46f
12:00pm 18 31 mph 1018mb 46f
11:00am 22 32 mph 1016mb 46f
10:00am 22 36 mph 1015mb 46f
9:00am 24 39 mph 1014mb 46f
8:00am 26 40 mph 1012mb 46f
7:00am 26 41 mph 1011mb 46f
6:00am 30 45 mph 1010mb 45f
5:00am 28 44 mph 1009mb 45f
4:00am 30 43 mph 1007mb 45f
3:00am 28 41 mph 1007mb 45f
2:00am 25 41 mph 1006mb 44f
1:00am 28 40 mph 1005mb 41f
12:00am 26 53 mph 1004mb 43f
Fri 12/19 11:00pm 28 51 mph 1003mb 43f
10:00pm 25 40 mph 1002mb 43f
8:00pm 22 40 mph 1002mb 41f
7:00pm 26 52 mph 1002mb 40f
6:00pm 23 48 mph 1001mb 43f
5:00pm 29 43 mph 1000mb 42f
4:00pm 26 41 mph 999mb 43f
3:00pm 25 52 mph 999mb 42f
2:00pm 30 45 mph 999mb 42f
1:00pm 22 48 mph 998mb 39f
12:00pm 25 37 mph 997mb 42f
11:00am 26 41 mph 997mb 39f
10:00am 23 43 mph 996mb 42f
9:00am 22 39 mph 995mb 42f
8:00am 17 38 mph 994mb 42f
7:00am 19 40 mph 993mb 41f
6:00am 29 40 mph 992mb 42f
5:00am 28 53 mph 992mb 40f
4:00am 28 47 mph 991mb 39f
3:00am 28 46 mph 991mb 42f
2:00am 25 45 mph 991mb 42f
1:00am 26 45 mph 991mb 42f
12:00am 25 39 mph 991mb 43f
Thu 12/18 11:00pm 25 44 mph 992mb 42f
10:00pm 24 39 mph 992mb 42f
9:00pm 22 38 mph 992mb 43f
8:00pm 25 44 mph 992mb 42f
7:00pm 23 45 mph 991mb 42f
6:00pm 28 49 mph 991mb 42f
5:00pm 24 43 mph 991mb 43f
4:00pm 19 36 mph 990mb 44f
3:00pm 21 46 mph 990mb 42f
2:00pm 23 40 mph 990mb 42f